Temp
17 17 18 19 20 21 21 22 22 22 23 24 25 25 26 28 30 30 36 35 33 31 30 31 31 33 33 36 36 36 37 35 34 35 33 34 33 33 34 33 33 32 32 31 28
16 17 17 18 20 21 21 22 22 23 24 24 25 26 25 27 26 34 34 34 33 32 33 35 37 37 38 37 37 38 36 34 35 35 35 34 34 33 33 32 31 31 31 29 28
16 17 17 19 20 20 21 23 23 24 24 25 25 26 26 27 32 38 32 33 33 32 33 36 37 39 38 39 37 36 35 34 34 35 36 34 34 34 33 33 33 31 30 29 28
16 17 18 19 20 20 22 23 24 25 25 25 25 26 27 25 36 33 32 33 32 30 34 37 39 39 39 37 37 35 35 35 34 34 35 34 35 34 34 34 34 32 31 30 30
16 17 18 19 20 21 22 23 24 25 25 25 25 26 26 33 36 30 31 32 30 32 36 39 39 39 38 37 37 36 35 35 35 34 35 34 34 34 34 34 34 32 31 31 32
15 16 18 19 20 21 22 23 24 26 26 25 25 25 28 34 30 29 29 30 33 34 37 38 39 39 38 37 37 36 37 35 35 35 34 35 34 34 33 33 33 32 32 32 32
15 16 17 19 20 21 22 24 25 26 26 25 24 24 30 35 29 30 30 32 32 34 38 37 37 39 39 37 36 36 37 36 36 35 34 35 33 34 33 33 32 32 32 33 32
15 15 17 19 20 21 23 23 23 25 25 24 24 24 33 29 29 30 31 33 32 33 35 36 37 38 39 37 37 37 38 36 36 35 34 35 33 33 33 33 32 33 32 32 33
15 16 17 19 21 22 22 22 22 23 24 23 24 28 34 30 32 33 32 35 35 34 35 35 37 39 38 38 38 38 37 36 37 36 36 36 34 33 34 34 33 33 33 32 33
15 16 17 20 21 22 23 22 22 22 22 22 23 29 33 34 32 32 32 33 36 37 36 37 38 38 39 39 37 37 37 36 36 37 36 36 36 33 33 34 34 33 33 32 33
15 15 17 20 21 23 23 22 28 29 29 31 32 31 33 33 31 33 33 34 36 37 37 38 37 37 39 39 38 38 37 37 37 36 36 36 37 35 33 34 34 34 33 33 33
14 15 17 21 21 23 23 29 25 23 28 31 29 30 30 30 33 34 33 35 35 36 38 36 37 39 40 39 38 38 38 38 37 36 36 37 37 37 35 34 34 34 34 34 34
13 14 17 21 21 21 23 24 21 21 27 31 31 31 31 31 33 35 35 36 35 36 36 37 38 39 38 38 37 38 38 38 37 37 37 37 38 37 36 35 35 35 35 35 35
12 14 16 20 21 20 25 21 21 21 31 33 32 32 31 33 33 35 35 36 35 36 36 37 38 36 37 37 38 38 39 37 37 37 37 38 38 37 36 35 35 35 35 35 35
13 13 16 17 17 23 23 21 21 23 33 33 32 31 33 33 35 33 35 36 35 35 35 36 35 36 37 38 39 38 38 38 37 38 38 38 38 38 37 36 36 35 36 37 36
13 14 16 15 17 20 20 21 23 30 32 33 33 33 32 34 34 34 34 36 36 36 35 37 36 37 38 38 38 38 37 37 38 38 37 39 38 39 39 38 38 38 36 37 37
15 17 16 13 24 19 20 26 31 32 33 33 33 33 34 34 34 34 34 34 35 33 34 35 35 36 36 36 37 36 37 36 36 37 37 39 37 40 40 39 38 38 38 37 38
17 18 16 16 17 18 23 29 30 32 33 33 33 33 33 35 35 35 35 35 36 36 37 35 34 36 36 37 37 36 38 37 34 36 38 37 37 39 39 39 38 37 39 38 38
18 18 18 19 17 17 27 30 32 32 32 32 33 33 33 34 34 34 35 35 36 36 35 35 36 38 37 38 38 37 36 40 38 38 37 39 38 40 40 39 38 38 38 38 38
14 20 22 18 18 22 29 28 31 31 31 32 33 33 34 34 33 34 35 36 36 36 37 36 35 37 37 36 36 37 39 37 38 35 35 38 37 38 39 40 38 38 38 38 38
17 25 20 18 20 27 30 31 30 31 31 32 32 33 34 34 35 35 35 36 36 36 37 37 36 36 36 36 37 36 37 37 39 38 37 36 38 41 40 40 39 37 36 37 38
20 26 20 20 27 29 30 30 21 31 31 31 31 32 33 34 34 35 35 36 37 37 35 36 37 36 36 38 38 39 38 39 37 36 37 37 37 41 39 38 37 37 36 36 36
21 23 22 22 28 29 29 29 29 30 31 31 32 32 33 33 33 35 36 36 36 36 36 37 36 35 36 36 36 37 38 39 40 40 37 36 38 38 38 37 36 36 36 34 34
19 25 25 25 26 28 28 29 29 29 30 30 31 32 32 33 34 34 35 35 35 37 30 35 37 36 36 37 38 36 38 38 39 38 38 38 38 39 38 37 36 35 36 36 35
19 23 21 26 26 27 27 27 28 29 30 30 31 31 32 32 34 34 34 35 34 32 34 37 36 37 37 37 37 38 38 38 38 39 38 39 38 40 39 37 36 36 35 35 35
19 20 20 23 23 24 22 27 28 29 28 30 30 31 30 31 32 32 33 34 35 33 35 38 36 37 36 37 37 37 38 38 38 39 39 39 39 38 36 36 35 35 35 35 35
15 16 19 20 25 25 27 27 27 27 29 29 28 28 30 31 29 31 32 33 33 34 35 37 37 36 36 36 36 36 38 37 38 38 38 38 38 36 34 34 35 35 36 35 34
Height
821 817 814 810 806 802 798 794 791 788 785 781 777 775 772 769 765 764 760 760 762 762 764 766 766 764 762 756 757 754 766 787 789 783 790 780 786 780 779 787 788 791 793 804 814
822 818 815 811 807 802 797 793 788 786 783 779 776 774 772 769 765 760 759 758 760 761 763 761 756 755 753 754 755 754 774 789 777 775 781 779 781 785 787 791 797 796 799 808 816
822 818 814 810 807 802 796 791 787 783 780 777 774 772 771 769 764 752 757 758 759 760 762 760 756 750 754 750 758 763 783 778 780 774 770 779 782 778 787 793 788 799 803 811 815
821 817 813 809 805 800 795 789 783 780 777 775 773 771 769 769 773 757 756 757 759 761 761 757 752 751 756 766 760 778 772 773 777 776 774 781 775 783 782 783 781 793 801 809 813
820 816 812 807 802 797 792 786 780 777 774 773 771 770 769 763 756 759 756 757 760 762 757 753 751 751 764 762 761 772 773 772 773 775 775 777 782 782 786 782 786 795 803 807 810
820 815 810 806 801 795 789 783 778 774 771 771 771 771 770 768 759 760 758 759 760 761 756 754 752 750 757 764 766 766 767 773 773 775 778 781 784 782 787 786 792 797 801 804 807
819 814 809 804 799 793 786 781 776 772 771 770 770 770 767 757 759 760 760 760 761 761 756 756 754 751 753 766 763 766 775 772 774 776 782 776 796 791 785 789 795 798 800 802 805
818 813 807 802 797 791 785 779 775 773 771 771 770 771 759 759 759 760 761 760 760 761 760 758 756 753 754 757 764 770 768 790 776 775 779 780 804 788 785 791 795 797 800 803 805
816 811 805 800 795 789 783 778 776 774 772 771 772 769 757 759 758 758 760 757 759 760 760 759 756 754 759 766 770 770 791 788 781 771 775 778 794 787 783 787 795 797 799 802 804
814 809 804 798 793 787 781 778 776 774 773 772 772 771 757 755 757 758 759 760 756 756 760 759 757 764 760 768 790 789 784 787 787 775 776 779 784 786 785 785 791 793 796 800 801
812 807 801 796 791 786 780 778 774 771 768 763 758 760 755 756 757 756 757 758 755 755 766 759 772 778 764 758 764 772 779 785 780 773 778 777 777 780 784 786 787 788 792 795 797
811 805 799 794 790 787 783 778 786 789 775 758 761 760 759 760 756 753 757 760 760 768 756 772 776 754 749 754 767 771 777 777 777 774 777 773 777 767 776 781 781 784 786 789 791
809 804 798 793 789 788 787 787 788 787 777 756 755 755 754 759 754 749 752 751 762 765 767 769 759 749 760 766 773 769 774 776 785 774 768 772 773 773 768 773 775 777 778 781 785
808 803 798 793 792 790 786 788 787 785 771 758 752 752 754 751 758 747 748 752 761 767 763 765 752 767 768 769 765 777 756 771 780 785 793 770 791 771 770 776 774 773 774 777 780
806 802 798 795 795 790 790 787 786 785 782 753 753 750 748 751 743 752 748 751 761 765 767 769 770 772 770 763 755 771 760 768 776 779 779 776 787 769 765 775 770 767 765 766 770
803 799 795 795 794 790 788 787 786 781 784 758 749 752 756 748 746 749 753 749 746 759 763 756 756 757 756 752 755 755 768 770 770 775 798 769 781 765 761 761 756 752 756 756 759
799 796 793 793 787 788 787 782 780 778 752 762 756 750 748 753 752 751 758 762 766 783 779 767 768 757 756 768 761 770 776 799 806 800 799 763 782 757 745 745 749 747 746 750 753
794 790 787 786 787 787 786 778 791 765 758 749 753 752 759 747 748 750 757 763 751 753 757 776 790 763 754 759 767 770 767 784 819 801 785 770 791 762 741 739 740 740 736 743 748
791 790 788 786 785 786 780 779 764 762 756 757 750 759 758 750 752 753 754 755 750 751 770 770 770 743 748 746 750 764 777 748 769 767 785 765 761 742 737 741 742 740 739 743 745
793 788 784 784 783 784 774 777 765 758 756 754 760 752 756 753 760 756 755 741 747 742 739 752 775 750 750 751 752 754 745 781 772 805 812 777 779 771 751 743 742 744 742 740 742
792 779 783 783 784 775 772 763 763 754 757 759 757 756 750 751 748 750 747 739 734 740 740 746 756 762 755 761 758 764 765 760 751 762 788 794 776 731 738 735 740 742 744 743 741
790 775 783 784 777 766 766 762 777 757 754 756 755 753 751 748 747 746 747 737 724 728 754 744 745 762 760 735 736 736 749 747 774 781 769 772 773 723 731 736 738 740 741 742 743
791 782 782 782 771 768 764 764 762 759 756 756 755 749 744 748 756 739 734 724 726 733 743 740 757 769 763 755 748 753 743 736 737 740 766 781 767 727 731 736 739 740 740 744 744
797 777 775 777 771 766 766 763 764 757 758 755 753 747 748 746 738 744 739 731 729 727 736 732 738 751 762 751 734 757 745 742 740 759 757 756 753 735 734 740 742 742 740 740 742
797 784 788 772 772 769 769 767 765 764 754 752 752 753 751 754 742 743 737 733 732 734 734 730 747 741 734 738 737 734 737 741 747 739 752 741 745 730 728 734 737 739 739 742 743
798 795 792 781 778 777 778 766 766 759 762 755 759 751 753 756 748 752 743 738 733 735 733 722 741 737 749 739 739 744 735 735 739 734 735 734 737 721 729 729 741 741 740 744 744
808 806 799 786 773 774 764 764 763 766 755 756 759 762 754 748 749 742 736 734 735 734 733 728 730 746 756 740 743 756 736 735 732 729 732 745 730 728 739 740 738 740 740 745 747
Wind_Speed
21 23 23 23 23 23 23 24 24 23 21 21 17 16 16 18 14 5 6 1 3 10 10 8 5 5 7 2 1 3 3 9 7 8 8 10 8 5 9 14 7 3 15 23 26
22 22 24 23 23 24 24 25 26 23 22 20 16 15 15 17 11 9 5 5 6 10 8 6 2 7 4 2 1 5 8 7 4 5 9 7 6 10 10 11 9 12 18 27 27
22 23 24 24 24 26 25 26 26 24 22 19 14 12 13 13 6 3 4 8 9 10 4 3 3 5 5 5 5 8 8 8 6 5 7 7 8 7 10 6 9 18 22 24 25
25 26 26 26 26 27 26 29 27 24 21 15 11 10 11 3 6 3 3 11 13 8 8 5 4 1 4 7 4 10 7 6 6 4 7 5 7 7 4 6 11 19 24 22 19
26 26 27 28 29 29 29 30 23 23 18 11 7 7 4 6 3 5 4 12 12 6 11 6 4 4 8 6 7 11 8 5 7 6 7 5 4 4 6 10 16 20 21 20 17
27 28 28 29 30 31 34 23 24 19 11 5 4 3 4 9 3 3 3 7 9 8 6 6 5 4 7 5 6 3 7 9 6 7 5 3 6 7 8 14 18 20 20 18 17
27 29 29 30 31 32 28 24 20 11 4 1 1 1 6 5 2 1 1 6 7 6 5 3 4 5 1 7 4 6 8 9 8 7 4 7 8 2 14 16 19 19 18 17 16
27 30 30 30 30 33 25 23 9 6 3 1 1 2 4 1 3 6 3 6 4 6 4 4 3 2 4 7 5 4 4 6 5 7 5 8 8 8 15 17 19 19 16 16 16
28 31 32 30 29 31 24 9 5 4 2 2 1 4 2 2 5 5 7 5 8 6 4 2 4 3 6 9 8 3 7 4 5 5 3 6 8 12 14 16 17 17 18 16 16
28 30 31 29 28 24 20 3 3 3 2 2 3 5 4 4 1 3 6 5 7 9 8 10 8 10 10 8 2 3 4 3 6 4 4 4 7 13 15 15 16 17 18 17 17
28 29 30 27 28 16 15 4 4 5 7 9 5 5 1 3 2 7 8 10 9 13 14 13 12 15 16 11 4 1 2 2 5 4 4 4 5 12 16 16 16 17 17 19 19
28 29 29 25 25 12 8 4 5 5 8 5 9 11 11 4 5 8 9 12 11 14 14 9 17 17 15 12 9 8 6 3 6 3 4 2 7 10 17 19 18 17 18 18 18
27 28 28 24 14 8 5 5 4 5 6 3 3 3 4 11 7 11 15 17 13 16 15 17 13 15 9 12 14 13 11 2 5 3 6 8 8 8 15 15 17 17 17 17 18
27 27 26 24 2 10 0 1 12 4 5 6 4 4 7 6 8 5 16 14 8 15 14 12 5 9 18 19 16 16 3 4 3 6 4 3 1 9 11 15 18 17 19 18 19
27 26 23 19 12 5 2 9 6 4 5 4 6 4 6 9 10 9 13 11 13 10 10 11 10 14 19 20 15 16 0 3 3 10 7 10 7 9 9 10 15 19 20 20 21
27 26 24 6 7 8 8 11 4 6 2 4 4 6 11 9 6 10 13 8 4 9 13 10 1 12 15 14 7 8 8 10 8 10 10 7 7 9 10 5 4 10 19 22 21
28 23 18 9 2 6 11 5 5 5 3 4 2 7 12 10 9 14 16 16 10 13 12 15 10 5 7 12 11 12 14 11 12 11 10 6 6 10 5 5 1 3 16 21 20
26 20 9 8 7 8 6 6 6 3 0 3 1 5 10 10 9 13 14 15 15 12 8 13 15 14 13 16 13 16 18 11 10 11 8 5 7 3 3 4 3 3 12 19 20
22 6 3 1 5 4 6 8 3 1 1 3 4 8 9 10 5 11 12 15 15 14 10 12 14 9 7 12 12 15 15 16 18 4 8 4 5 10 3 3 2 6 9 16 18
12 6 1 6 5 8 7 8 2 2 4 3 3 3 8 12 11 10 12 11 16 17 14 4 11 8 12 7 7 10 16 10 10 12 10 9 6 9 7 6 4 8 8 12 15
5 4 4 5 3 5 8 5 3 4 4 4 2 2 3 4 12 12 10 7 15 19 17 11 10 9 8 14 16 10 9 12 10 7 9 9 7 8 5 5 6 7 5 5 8
5 3 4 2 6 3 8 4 2 5 5 5 6 7 5 3 8 10 11 8 10 14 19 18 8 10 16 11 8 15 19 16 11 13 10 11 10 4 3 5 7 6 5 4 3
5 3 3 4 5 8 4 6 4 5 5 3 5 6 1 4 4 10 6 3 11 16 15 16 10 9 11 10 8 14 14 13 15 14 11 8 9 7 6 5 7 7 6 6 6
4 3 4 5 2 8 5 6 5 4 7 6 7 7 7 8 7 2 3 2 7 16 4 13 16 14 11 14 13 20 14 15 16 12 12 10 13 11 7 8 9 8 6 9 11
1 2 4 3 7 6 5 0 6 5 5 4 5 8 6 5 5 4 2 8 6 8 6 15 16 14 4 4 4 8 14 14 16 15 11 7 12 15 3 7 10 9 8 11 14
4 3 3 3 3 7 7 8 9 5 4 5 5 3 7 9 7 9 6 3 4 7 16 17 9 11 11 6 8 8 7 10 16 16 9 14 11 8 5 11 10 10 11 12 15
2 2 3 3 5 6 6 8 6 2 5 6 5 10 9 7 10 13 13 13 14 7 13 15 9 9 12 9 6 9 12 11 11 11 14 14 4 6 10 13 12 13 13 14 15
Wind_Direction
16 13 9 4 358 353 350 345 342 341 340 338 333 332 333 328 322 289 250 302 145 179 137 162 207 217 207 192 265 265 96 71 63 58 117 128 105 73 107 133 97 88 144 145 150
11 8 3 0 356 351 344 340 338 335 333 333 329 329 331 334 315 253 247 221 195 182 168 223 157 183 142 98 58 346 48 62 48 86 128 143 118 127 143 124 115 119 115 144 155
4 0 360 358 353 347 341 338 332 327 325 326 323 325 328 334 273 136 247 197 187 197 263 265 276 280 115 67 30 32 89 121 89 67 141 129 139 147 146 164 138 144 143 155 162
360 357 355 353 350 347 341 335 327 323 320 321 318 322 326 296 229 44 286 193 187 208 259 235 257 282 61 81 78 96 97 106 117 128 154 163 136 144 68 67 129 148 151 160 171
356 353 352 349 348 345 340 333 328 325 320 315 312 327 327 231 268 2 341 193 187 235 255 275 295 327 55 87 110 106 109 93 139 119 136 145 164 103 107 116 129 146 156 166 175
353 350 348 348 346 342 338 335 328 323 318 305 306 346 274 244 32 50 36 169 197 228 244 271 4 16 70 81 32 112 118 117 136 126 117 176 137 155 130 137 143 156 165 168 174
349 347 345 345 344 342 338 330 329 336 334 324 318 20 252 281 50 138 49 182 207 232 269 276 328 307 311 124 107 151 135 140 147 152 136 128 154 175 146 155 155 167 171 172 175
345 344 342 342 343 341 339 329 340 350 356 24 15 280 269 263 268 256 201 197 210 210 268 306 285 114 320 128 152 146 169 145 141 192 156 226 114 143 159 167 166 171 172 176 181
340 340 339 339 341 339 338 338 355 3 51 82 300 271 205 296 224 208 199 208 179 189 201 190 239 263 186 234 179 199 94 58 133 187 165 244 115 156 174 176 172 177 180 184 184
336 336 335 336 340 339 339 316 326 316 325 296 261 244 205 156 140 198 197 211 191 171 168 192 206 219 232 234 63 84 108 113 31 85 234 215 126 167 182 189 180 185 185 192 194
337 335 332 334 338 343 348 296 243 180 230 287 326 314 142 319 220 203 192 193 196 204 201 198 211 219 217 226 19 300 317 23 85 34 266 245 248 172 183 196 190 188 191 196 200
337 336 332 334 337 353 357 26 50 352 300 264 263 264 261 294 216 191 187 200 203 204 209 181 221 219 232 228 227 237 266 115 129 67 266 227 261 188 183 197 200 196 192 198 197
340 338 333 338 340 13 14 69 357 313 258 167 213 262 199 201 227 175 195 203 208 213 205 225 215 225 231 214 234 239 255 47 347 333 244 292 231 180 190 199 201 205 204 198 199
340 339 338 342 360 339 128 360 329 224 266 121 162 125 167 212 216 173 209 187 205 216 213 239 167 230 225 230 224 247 128 192 249 280 325 324 296 176 169 202 206 207 201 204 203
338 337 335 337 305 294 19 326 321 224 249 89 104 115 161 214 117 169 181 205 207 204 198 201 211 220 226 226 225 254 215 217 240 265 264 193 261 111 158 193 208 211 210 209 195
334 331 329 337 282 265 309 318 226 230 169 130 126 170 177 196 176 137 176 223 290 209 225 254 244 237 235 235 227 245 231 220 241 269 267 216 254 170 152 91 156 194 203 207 205
328 326 308 279 320 303 312 247 238 252 137 121 87 171 200 173 165 176 186 195 195 201 200 206 198 191 236 215 216 209 226 233 227 228 243 109 235 267 52 47 152 224 189 199 201
327 322 297 256 269 295 269 229 249 59 182 121 235 201 204 177 169 191 188 204 214 243 228 203 207 199 190 221 208 217 228 229 217 241 240 142 238 217 72 350 347 208 178 188 195
332 325 256 266 259 224 230 222 319 157 8 331 183 203 187 203 244 195 208 218 205 221 237 210 229 176 198 208 232 192 228 245 272 231 284 247 194 272 161 119 77 138 156 182 192
329 300 204 297 191 203 229 255 256 279 314 268 265 252 199 182 203 201 194 220 224 208 241 199 235 186 179 197 216 259 213 208 234 256 242 243 232 277 201 293 148 154 179 170 190
281 260 39 108 184 214 228 226 250 226 265 288 259 263 233 195 221 197 186 213 210 197 214 232 243 158 170 208 193 195 208 235 281 237 276 257 248 263 285 305 186 147 178 180 202
295 224 147 325 215 219 227 224 25 254 212 274 283 273 255 206 215 222 220 244 194 186 197 216 230 189 207 196 264 232 217 217 224 218 242 286 291 10 119 150 162 134 133 129 184
319 307 176 268 226 210 186 228 255 246 232 242 258 243 244 271 246 222 234 338 181 184 201 196 231 215 175 182 193 229 231 255 243 247 270 259 273 137 144 159 145 141 120 137 133
280 221 157 219 296 288 210 205 212 194 263 263 278 269 266 247 216 256 224 112 210 222 325 189 224 233 210 215 203 206 215 227 246 236 244 233 266 170 170 168 158 142 136 121 121
247 68 357 180 202 246 249 358 215 221 208 247 236 248 303 271 247 192 180 316 176 202 222 222 231 219 235 320 263 228 201 213 228 238 258 276 230 240 65 175 161 141 132 129 132
318 328 327 275 242 236 201 231 248 224 240 184 252 336 301 281 319 302 326 324 3 182 208 216 220 193 233 230 242 226 226 221 222 248 258 268 274 85 109 146 153 151 138 139 130
308 266 268 139 217 230 211 240 242 262 209 265 309 314 294 343 330 303 296 286 272 283 205 217 208 200 217 195 213 230 211 215 225 231 234 237 329 134 161 170 160 153 146 134 125